"Data set title: Gaging station water sample data. Usage: Event based table used with water chemistry collection from 01-Oct-2018 to 30-Sep-2019",,,,,,,,,,,,
,,,,,,,,,,,,,
"Site","Date","RecNum","SiteID","Flag_SiteID","LOGGERID","PROGID","VNOTCH_INST_0_0_01","Flag_VNOTCH_INST_0_0_01","SAMPLE_INST_0_0_01","Flag_SAMPLE_INST_0_0_01","STAGE_INST_0_0_01","Flag_STAGE_INST_0_0_01"
"","yyyy-MM-dd HH:mm:ss","count","","none","none","none","none","none","count","none","ft","none"
"nominal","datetime","nominal","data","code","nominal","nominal","data","code","data","code","data","code"
"GSWS08_120",2018-10-01 11:08:45,129,108.00,"",120,11297.0,0,"",22,"",0.0220,""
"GSWS08_120",2018-10-02 00:26:45,130,108.00,"",120,11297.0,0,"",23,"",0.0220,""
"GSWS08_120",2018-10-02 13:44:45,131,108.00,"",120,11297.0,0,"",24,"",0.0220,""
"GSWS08_120",2018-10-03 03:02:45,132,108.00,"",120,11297.0,0,"",25,"",0.0220,""
"GSWS08_120",2018-10-03 16:20:45,133,108.00,"",120,11297.0,0,"",26,"",0.0220,""
"GSWS08_120",2018-10-03 16:53:00,134,108.00,"",120,11297.0,0,"",27,"",0.0220,""
"GSWS08_120",2018-10-04 05:38:45,135,108.00,"",120,11297.0,0,"",1,"",0.0220,""
"GSWS08_120",2018-10-04 18:56:45,136,108.00,"",120,11297.0,0,"",2,"",0.0220,""
"GSWS08_120",2018-10-05 08:14:45,137,108.00,"",120,11297.0,0,"",3,"",0.0210,""
"GSWS08_120",2018-10-05 21:32:45,138,108.00,"",120,11297.0,0,"",4,"",0.0740,""
"GSWS08_120",2018-10-06 10:50:45,139,108.00,"",120,11297.0,0,"",5,"",0.0820,""
"GSWS08_120",2018-10-07 00:08:45,140,108.00,"",120,11297.0,0,"",6,"",0.0430,""
"GSWS08_120",2018-10-07 13:26:45,141,108.00,"",120,11297.0,0,"",7,"",0.0360,""
"GSWS08_120",2018-10-08 02:44:45,142,108.00,"",120,11297.0,0,"",8,"",0.0340,""
"GSWS08_120",2018-10-08 16:02:45,143,108.00,"",120,11297.0,0,"",9,"",0.0660,""
"GSWS08_120",2018-10-08 17:00:00,144,108.00,"",120,11297.0,0,"",10,"",0.0720,""
"GSWS08_120",2018-10-08 17:53:30,145,108.00,"",120,11297.0,0,"",11,"",0.0760,""
"GSWS08_120",2018-10-09 10:02:45,146,108.00,"",120,11297.0,0,"",12,"",0.0660,""
"GSWS08_120",2018-10-09 10:03:45,147,108.00,"",120,11297.0,0,"",13,"",0.0660,""
"GSWS08_120",2018-10-09 18:38:45,148,108.00,"",120,11297.0,0,"",14,"",0.0500,""
"GSWS08_120",2018-10-10 07:56:45,149,108.00,"",120,11297.0,0,"",15,"",0.0410,""
"GSWS08_120",2018-10-10 21:14:45,150,108.00,"",120,11297.0,0,"",16,"",0.0350,""
"GSWS08_120",2018-10-11 10:32:45,151,108.00,"",120,11297.0,0,"",17,"",0.0330,""
"GSWS08_120",2018-10-11 23:50:45,152,108.00,"",120,11297.0,0,"",18,"",0.0310,""
"GSWS08_120",2018-10-12 13:08:45,153,108.00,"",120,11297.0,0,"",19,"",0.0310,""
"GSWS08_120",2018-10-13 02:26:45,154,108.00,"",120,11297.0,0,"",20,"",0.0300,""
"GSWS08_120",2018-10-13 15:44:45,155,108.00,"",120,11297.0,0,"",21,"",0.0290,""
"GSWS08_120",2018-10-14 05:02:45,156,108.00,"",120,11297.0,0,"",22,"",0.0330,""
"GSWS08_120",2018-10-14 18:20:45,157,108.00,"",120,11297.0,0,"",23,"",0.0440,""
"GSWS08_120",2018-10-15 07:38:45,158,108.00,"",120,11297.0,0,"",24,"",0.0450,""
"GSWS08_120",2018-10-15 20:56:45,159,108.00,"",120,11297.0,0,"",25,"",0.0440,""
"GSWS08_120",2018-10-16 10:14:45,160,108.00,"",120,11297.0,0,"",26,"",0.0480,""
"GSWS08_120",2018-10-16 23:32:45,161,108.00,"",120,11297.0,0,"",27,"",0.0480,""
"GSWS08_120",2018-10-17 12:50:45,162,108.00,"",120,11297.0,0,"",28,"",0.0510,""
"GSWS08_120",2018-10-18 02:08:45,163,108.00,"",120,11297.0,0,"",29,"",0.0490,""
"GSWS08_120",2018-10-18 15:26:45,164,108.00,"",120,11297.0,0,"",30,"",0.0520,""
"GSWS08_120",2018-10-19 04:44:45,165,108.00,"",120,11297.0,0,"",31,"",0.0500,""
"GSWS08_120",2018-10-19 18:02:45,166,108.00,"",120,11297.0,0,"",32,"",0.0250,""
"GSWS08_120",2018-10-20 07:20:45,167,108.00,"",120,11297.0,0,"",33,"",0.0240,""
"GSWS08_120",2018-10-20 20:38:45,168,108.00,"",120,11297.0,0,"",34,"",0.0240,""
"GSWS08_120",2018-10-21 09:56:45,169,108.00,"",120,11297.0,0,"",35,"",0.0240,""
"GSWS08_120",2018-10-21 23:14:45,170,108.00,"",120,11297.0,0,"",36,"",0.0240,""
"GSWS08_120",2018-10-22 12:32:45,171,108.00,"",120,11297.0,0,"",37,"",0.0240,""
"GSWS08_120",2018-10-23 01:50:45,172,108.00,"",120,11297.0,0,"",38,"",0.0240,""
"GSWS08_120",2018-10-23 12:46:15,173,108.00,"",120,11297.0,0,"",39,"",0.0240,""
"GSWS08_120",2018-10-24 03:00:00,0,108.00,"",120,60962.0,0,"",1,"",0.0200,""
"GSWS08_120",2018-10-24 16:18:00,1,108.00,"",120,60962.0,0,"",2,"",0.0200,""
"GSWS08_120",2018-10-25 05:36:00,2,108.00,"",120,60962.0,0,"",3,"",0.0200,""
"GSWS08_120",2018-10-25 18:54:00,3,108.00,"",120,60962.0,0,"",4,"",0.0210,""
"GSWS08_120",2018-10-26 08:12:00,4,108.00,"",120,60962.0,0,"",5,"",0.0310,""
"GSWS08_120",2018-10-26 21:30:00,5,108.00,"",120,60962.0,0,"",6,"",0.0420,""
"GSWS08_120",2018-10-27 10:48:00,6,108.00,"",120,60962.0,0,"",7,"",0.0310,""
"GSWS08_120",2018-10-28 00:06:00,7,108.00,"",120,60962.0,0,"",8,"",0.0330,""
"GSWS08_120",2018-10-28 13:24:00,8,108.00,"",120,60962.0,0,"",9,"",0.0820,""
"GSWS08_120",2018-10-29 02:42:00,9,108.00,"",120,60962.0,0,"",10,"",0.1300,""
"GSWS08_120",2018-10-29 16:00:00,10,108.00,"",120,60962.0,0,"",11,"",0.1100,""
"GSWS08_120",2018-10-30 05:18:00,11,108.00,"",120,60962.0,0,"",12,"",0.0690,""
"GSWS08_120",2018-10-30 18:36:00,12,108.00,"",120,60962.0,0,"",13,"",0.0530,""
"GSWS08_120",2018-10-31 07:54:00,13,108.00,"",120,60962.0,0,"",14,"",0.1120,""
"GSWS08_120",2018-10-31 21:12:00,14,108.00,"",120,60962.0,0,"",15,"",0.1800,""
"GSWS08_120",2018-11-01 10:30:00,15,108.00,"",120,60962.0,0,"",16,"",0.1310,""
"GSWS08_120",2018-11-01 23:48:00,16,108.00,"",120,60962.0,0,"",17,"",0.0950,""
"GSWS08_120",2018-11-02 13:06:00,17,108.00,"",120,60962.0,0,"",18,"",0.1270,""
"GSWS08_120",2018-11-03 02:24:00,18,108.00,"",120,60962.0,0,"",19,"",0.0910,""
"GSWS08_120",2018-11-03 15:42:00,19,108.00,"",120,60962.0,0,"",20,"",0.0760,""
"GSWS08_120",2018-11-04 05:00:00,20,108.00,"",120,60962.0,0,"",21,"",0.0670,""
"GSWS08_120",2018-11-04 18:18:00,21,108.00,"",120,60962.0,0,"",22,"",0.1160,""
"GSWS08_120",2018-11-05 07:36:00,22,108.00,"",120,60962.0,0,"",23,"",0.0920,""
"GSWS08_120",2018-11-05 20:54:00,23,108.00,"",120,60962.0,0,"",24,"",0.0880,""
"GSWS08_120",2018-11-06 10:12:00,24,108.00,"",120,60962.0,0,"",25,"",0.0830,""
"GSWS08_120",2018-11-06 23:30:00,25,108.00,"",120,60962.0,0,"",26,"",0.0740,""
"GSWS08_120",2018-11-07 12:48:00,26,108.00,"",120,60962.0,0,"",27,"",0.0680,""
"GSWS08_120",2018-11-08 02:06:00,27,108.00,"",120,60962.0,0,"",28,"",0.0630,""
"GSWS08_120",2018-11-08 15:24:00,28,108.00,"",120,60962.0,0,"",29,"",0.0580,""
"GSWS08_120",2018-11-09 04:42:00,29,108.00,"",120,60962.0,0,"",30,"",0.0550,""
"GSWS08_120",2018-11-09 18:00:00,30,108.00,"",120,60962.0,0,"",31,"",0.0520,""
"GSWS08_120",2018-11-10 07:18:00,31,108.00,"",120,60962.0,0,"",32,"",0.0510,""
"GSWS08_120",2018-11-10 20:36:00,32,108.00,"",120,60962.0,0,"",33,"",0.0480,""
"GSWS08_120",2018-11-11 09:54:00,33,108.00,"",120,60962.0,0,"",34,"",0.0480,""
"GSWS08_120",2018-11-11 23:12:00,34,108.00,"",120,60962.0,0,"",35,"",0.0450,""
"GSWS08_120",2018-11-12 12:30:00,35,108.00,"",120,60962.0,0,"",36,"",0.0440,""
"GSWS08_120",2018-11-13 01:48:00,36,108.00,"",120,60962.0,0,"",37,"",0.0430,""
"GSWS08_120",2018-11-13 15:06:00,37,108.00,"",120,60962.0,0,"",38,"",0.0420,""
"GSWS08_120",2018-11-14 04:24:00,38,108.00,"",120,60962.0,0,"",39,"",0.0410,""
"GSWS08_120",2018-11-14 15:54:45,39,108.00,"",120,60962.0,0,"",40,"",0.0390,""
"GSWS08_120",2018-11-14 17:42:00,40,108.00,"",120,60962.0,0,"",1,"",0.0390,""
"GSWS08_120",2018-11-15 07:00:00,41,108.00,"",120,60962.0,0,"",2,"",0.0390,""
"GSWS08_120",2018-11-15 20:18:00,42,108.00,"",120,60962.0,0,"",3,"",0.0390,""
"GSWS08_120",2018-11-16 09:36:00,43,108.00,"",120,60962.0,0,"",4,"",0.0380,""
"GSWS08_120",2018-11-16 22:54:00,44,108.00,"",120,60962.0,0,"",5,"",0.0380,""
"GSWS08_120",2018-11-17 12:12:00,45,108.00,"",120,60962.0,0,"",6,"",0.0370,""
"GSWS08_120",2018-11-18 01:30:00,46,108.00,"",120,60962.0,0,"",7,"",0.0360,""
"GSWS08_120",2018-11-18 14:48:00,47,108.00,"",120,60962.0,0,"",8,"",0.0360,""
"GSWS08_120",2018-11-19 04:06:00,48,108.00,"",120,60962.0,0,"",9,"",0.0360,""
"GSWS08_120",2018-11-19 17:24:00,49,108.00,"",120,60962.0,0,"",10,"",0.0360,""
"GSWS08_120",2018-11-20 06:42:00,50,108.00,"",120,60962.0,0,"",11,"",0.0350,""
"GSWS08_120",2018-11-20 20:00:00,51,108.00,"",120,60962.0,0,"",12,"",0.0350,""
"GSWS08_120",2018-11-21 09:18:00,52,108.00,"",120,60962.0,0,"",13,"",0.0350,""
"GSWS08_120",2018-11-21 22:35:45,53,108.00,"",120,60962.0,0,"",14,"",0.0410,""
"GSWS08_120",2018-11-22 11:53:45,54,108.00,"",120,60962.0,0,"",15,"",0.0420,""
"GSWS08_120",2018-11-23 01:11:45,55,108.00,"",120,60962.0,0,"",16,"",0.1220,""
"GSWS08_120",2018-11-23 14:29:45,56,108.00,"",120,60962.0,0,"",17,"",0.1750,""
"GSWS08_120",2018-11-24 03:47:45,57,108.00,"",120,60962.0,0,"",18,"",0.1610,""
"GSWS08_120",2018-11-24 17:05:45,58,108.00,"",120,60962.0,0,"",19,"",0.1230,""
"GSWS08_120",2018-11-25 06:23:45,59,108.00,"",120,60962.0,0,"",20,"",0.1040,""
"GSWS08_120",2018-11-25 19:41:45,60,108.00,"",120,60962.0,0,"",21,"",0.0900,""
"GSWS08_120",2018-11-26 08:59:45,61,108.00,"",120,60962.0,0,"",22,"",0.0830,""
"GSWS08_120",2018-11-26 22:17:45,62,108.00,"",120,60962.0,0,"",23,"",0.0770,""
"GSWS08_120",2018-11-27 11:35:45,63,108.00,"",120,60962.0,0,"",24,"",0.2950,""
"GSWS08_120",2018-11-28 00:53:45,64,108.00,"",120,60962.0,0,"",25,"",0.3370,""
"GSWS08_120",2018-11-28 14:11:45,65,108.00,"",120,60962.0,0,"",26,"",0.2580,""
"GSWS08_120",2018-11-29 03:29:45,66,108.00,"",120,60962.0,0,"",27,"",0.2100,""
"GSWS08_120",2018-11-29 16:47:45,67,108.00,"",120,60962.0,0,"",28,"",0.1730,""
"GSWS08_120",2018-11-30 06:05:45,68,108.00,"",120,60962.0,0,"",29,"",0.1520,""
"GSWS08_120",2018-11-30 19:23:45,69,108.00,"",120,60962.0,0,"",30,"",0.1660,""
"GSWS08_120",2018-12-01 08:41:45,70,108.00,"",120,60962.0,0,"",31,"",0.1480,""
"GSWS08_120",2018-12-01 21:59:45,71,108.00,"",120,60962.0,0,"",32,"",0.1380,""
"GSWS08_120",2018-12-02 11:17:45,72,108.00,"",120,60962.0,0,"",33,"",0.1310,""
"GSWS08_120",2018-12-03 00:35:45,73,108.00,"",120,60962.0,0,"",34,"",0.1250,""
"GSWS08_120",2018-12-03 13:53:45,74,108.00,"",120,60962.0,0,"",35,"",0.1200,""
"GSWS08_120",2018-12-04 03:11:45,75,108.00,"",120,60962.0,0,"",36,"",0.1160,""
"GSWS08_120",2018-12-04 16:29:45,76,108.00,"",120,60962.0,0,"",37,"",0.1120,""
"GSWS08_120",2018-12-05 05:47:45,77,108.00,"",120,60962.0,0,"",38,"",0.1090,""
"GSWS08_120",2018-12-05 10:44:45,78,108.00,"",120,60962.0,0,"",39,"",0.1070,""
"GSWS08_120",2018-12-05 19:05:45,79,108.00,"",120,60962.0,0,"",1,"",0.1050,""
"GSWS08_120",2018-12-06 08:23:45,80,108.00,"",120,60962.0,0,"",2,"",0.1020,""
"GSWS08_120",2018-12-06 21:41:45,81,108.00,"",120,60962.0,0,"",3,"",0.0990,""
"GSWS08_120",2018-12-07 10:59:45,82,108.00,"",120,60962.0,0,"",4,"",0.0960,""
"GSWS08_120",2018-12-08 00:17:45,83,108.00,"",120,60962.0,0,"",5,"",0.0950,""
"GSWS08_120",2018-12-08 13:35:45,84,108.00,"",120,60962.0,0,"",6,"",0.0940,""
"GSWS08_120",2018-12-09 02:53:45,85,108.00,"",120,60962.0,0,"",7,"",0.0970,""
"GSWS08_120",2018-12-09 16:11:45,86,108.00,"",120,60962.0,0,"",8,"",0.1050,""
"GSWS08_120",2018-12-10 05:29:45,87,108.00,"",120,60962.0,0,"",9,"",0.1600,""
"GSWS08_120",2018-12-10 18:47:45,88,108.00,"",120,60962.0,0,"",10,"",0.1490,""
"GSWS08_120",2018-12-11 08:05:45,89,108.00,"",120,60962.0,0,"",11,"",0.1410,""
"GSWS08_120",2018-12-11 21:23:45,90,108.00,"",120,60962.0,0,"",12,"",0.3900,""
"GSWS08_120",2018-12-12 10:41:45,91,108.00,"",120,60962.0,0,"",13,"",0.2990,""
"GSWS08_120",2018-12-12 23:59:45,92,108.00,"",120,60962.0,0,"",14,"",0.2580,""
"GSWS08_120",2018-12-13 13:17:45,93,108.00,"",120,60962.0,0,"",15,"",0.2290,""
"GSWS08_120",2018-12-14 02:35:45,94,108.00,"",120,60962.0,0,"",16,"",0.2090,""
"GSWS08_120",2018-12-14 15:53:45,95,108.00,"",120,60962.0,0,"",17,"",0.1900,""
"GSWS08_120",2018-12-15 05:11:45,96,108.00,"",120,60962.0,0,"",18,"",0.1800,""
"GSWS08_120",2018-12-15 18:29:45,97,108.00,"",120,60962.0,0,"",19,"",0.1690,""
"GSWS08_120",2018-12-16 07:47:45,98,108.00,"",120,60962.0,0,"",20,"",0.1610,""
"GSWS08_120",2018-12-16 21:05:45,99,108.00,"",120,60962.0,0,"",21,"",0.1880,""
"GSWS08_120",2018-12-17 10:23:45,100,108.00,"",120,60962.0,0,"",22,"",0.1730,""
"GSWS08_120",2018-12-17 23:41:45,101,108.00,"",120,60962.0,0,"",23,"",0.2230,""
"GSWS08_120",2018-12-18 06:19:45,102,108.00,"",120,60962.0,0,"",24,"",0.5050,""
"GSWS08_120",2018-12-18 09:08:45,103,108.00,"",120,60962.0,0,"",25,"",0.8530,""
"GSWS08_120",2018-12-18 12:30:45,104,108.00,"",120,60962.0,0,"",26,"",0.8080,""
"GSWS08_120",2018-12-18 16:56:45,105,108.00,"",120,60962.0,0,"",27,"",0.6880,""
"GSWS08_120",2018-12-18 23:34:45,106,108.00,"",120,60962.0,0,"",28,"",0.6170,""
"GSWS08_120",2018-12-19 06:12:45,107,108.00,"",120,60962.0,0,"",29,"",0.5750,""
"GSWS08_120",2018-12-19 12:50:45,108,108.00,"",120,60962.0,0,"",30,"",0.5120,""
"GSWS08_120",2018-12-20 02:08:45,109,108.00,"",120,60962.0,0,"",31,"",0.4330,""
"GSWS08_120",2018-12-20 15:26:45,110,108.00,"",120,60962.0,0,"",32,"",0.4280,""
"GSWS08_120",2018-12-21 04:44:45,111,108.00,"",120,60962.0,0,"",33,"",0.3820,""
"GSWS08_120",2018-12-21 18:02:45,112,108.00,"",120,60962.0,0,"",34,"",0.3420,""
"GSWS08_120",2018-12-22 07:20:45,113,108.00,"",120,60962.0,0,"",35,"",0.3120,""
"GSWS08_120",2018-12-22 20:38:45,114,108.00,"",120,60962.0,0,"",36,"",0.2910,""
"GSWS08_120",2018-12-23 09:56:45,115,108.00,"",120,60962.0,0,"",37,"",0.3700,""
"GSWS08_120",2018-12-23 16:54:00,116,108.00,"",120,60962.0,0,"",38,"",0.4900,""
"GSWS08_120",2018-12-23 23:32:00,117,108.00,"",120,60962.0,0,"",39,"",0.5840,""
"GSWS08_120",2018-12-24 06:10:00,118,108.00,"",120,60962.0,0,"",40,"",0.6030,""
"GSWS08_120",2018-12-24 12:48:00,119,108.00,"",120,60962.0,0,"",41,"",0.5880,""
"GSWS08_120",2018-12-24 19:26:00,120,108.00,"",120,60962.0,0,"",42,"",0.5480,""
"GSWS08_120",2018-12-25 02:04:00,121,108.00,"",120,60962.0,0,"",43,"",0.5070,""
"GSWS08_120",2018-12-25 15:22:00,122,108.00,"",120,60962.0,0,"",44,"",0.4480,""
"GSWS08_120",2018-12-26 04:40:00,123,108.00,"",120,60962.0,0,"",45,"",0.4090,""
"GSWS08_120",2018-12-26 17:58:00,124,108.00,"",120,60962.0,0,"",46,"",0.3770,""
"GSWS08_120",2018-12-27 07:16:00,125,108.00,"",120,60962.0,0,"",47,"",0.3470,""
"GSWS08_120",2018-12-27 20:34:00,126,108.00,"",120,60962.0,0,"",48,"",0.3180,""
"GSWS08_120",2018-12-28 09:11:45,127,108.00,"",120,60962.0,0,"",49,"",0.2940,""
"GSWS08_120",2018-12-28 09:52:00,128,108.00,"",120,60962.0,0,"",1,"",0.2930,""
"GSWS08_120",2018-12-28 23:10:00,129,108.00,"",120,60962.0,0,"",2,"",0.2810,""
"GSWS08_120",2018-12-29 12:28:00,130,108.00,"",120,60962.0,0,"",3,"",0.2840,""
"GSWS08_120",2018-12-30 01:46:00,131,108.00,"",120,60962.0,0,"",4,"",0.4520,""
"GSWS08_120",2018-12-30 15:04:00,132,108.00,"",120,60962.0,0,"",5,"",0.4100,""
"GSWS08_120",2018-12-31 04:22:00,133,108.00,"",120,60962.0,0,"",6,"",0.3800,""
"GSWS08_120",2018-12-31 17:40:00,134,108.00,"",120,60962.0,0,"",7,"",0.3600,""
"GSWS08_120",2019-01-01 06:58:00,135,108.00,"",120,60962.0,0,"",8,"",0.3330,""
"GSWS08_120",2019-01-01 20:16:00,136,108.00,"",120,60962.0,0,"",9,"",0.3120,""
"GSWS08_120",2019-01-02 09:34:00,137,108.00,"",120,60962.0,0,"",10,"",0.2960,""
"GSWS08_120",2019-01-02 22:52:00,138,108.00,"",120,60962.0,0,"",11,"",0.2820,""
"GSWS08_120",2019-01-03 12:10:00,139,108.00,"",120,60962.0,0,"",12,"",0.2690,""
"GSWS08_120",2019-01-04 01:28:00,140,108.00,"",120,60962.0,0,"",13,"",0.2590,""
"GSWS08_120",2019-01-04 14:46:00,141,108.00,"",120,60962.0,0,"",14,"",0.2490,""
"GSWS08_120",2019-01-05 04:04:00,142,108.00,"",120,60962.0,0,"",15,"",0.2370,""
"GSWS08_120",2019-01-05 17:22:00,143,108.00,"",120,60962.0,0,"",16,"",0.2290,""
"GSWS08_120",2019-01-06 06:40:00,144,108.00,"",120,60962.0,0,"",17,"",0.2220,""
"GSWS08_120",2019-01-06 19:58:00,145,108.00,"",120,60962.0,0,"",18,"",0.2130,""
"GSWS08_120",2019-01-07 09:16:00,146,108.00,"",120,60962.0,0,"",19,"",0.2030,""
"GSWS08_120",2019-01-07 22:34:00,147,108.00,"",120,60962.0,0,"",20,"",0.1940,""
"GSWS08_120",2019-01-08 11:52:00,148,108.00,"",120,60962.0,0,"",21,"",0.2540,""
"GSWS08_120",2019-01-09 01:10:00,149,108.00,"",120,60962.0,0,"",22,"",0.2720,""
"GSWS08_120",2019-01-09 14:28:00,150,108.00,"",120,60962.0,0,"",23,"",0.2710,""
"GSWS08_120",2019-01-10 03:46:00,151,108.00,"",120,60962.0,0,"",24,"",0.2860,""
"GSWS08_120",2019-01-10 17:04:00,152,108.00,"",120,60962.0,0,"",25,"",0.2730,""
"GSWS08_120",2019-01-11 06:22:00,153,108.00,"",120,60962.0,0,"",26,"",0.2620,""
"GSWS08_120",2019-01-11 19:40:00,154,108.00,"",120,60962.0,0,"",27,"",0.2500,""
"GSWS08_120",2019-01-12 08:58:00,155,108.00,"",120,60962.0,0,"",28,"",0.2390,""
"GSWS08_120",2019-01-12 22:16:00,156,108.00,"",120,60962.0,0,"",29,"",0.2270,""
"GSWS08_120",2019-01-13 11:34:00,157,108.00,"",120,60962.0,0,"",30,"",0.2180,""
"GSWS08_120",2019-01-14 00:52:00,158,108.00,"",120,60962.0,0,"",31,"",0.2110,""
"GSWS08_120",2019-01-14 14:10:00,159,108.00,"",120,60962.0,0,"",32,"",0.2030,""
"GSWS08_120",2019-01-15 03:28:00,160,108.00,"",120,60962.0,0,"",33,"",0.1940,""
"GSWS08_120",2019-01-15 16:46:00,161,108.00,"",120,60962.0,0,"",1,"",0.1870,""
"GSWS08_120",2019-01-16 06:04:00,162,108.00,"",120,60962.0,0,"",2,"",0.1820,""
"GSWS08_120",2019-01-16 19:22:00,163,108.00,"",120,60962.0,0,"",3,"",0.1780,""
"GSWS08_120",2019-01-17 08:40:00,164,108.00,"",120,60962.0,0,"",4,"",0.1710,""
"GSWS08_120",2019-01-17 21:58:00,165,108.00,"",120,60962.0,0,"",5,"",0.1760,""
"GSWS08_120",2019-01-18 11:16:00,166,108.00,"",120,60962.0,0,"",6,"",0.1670,""
"GSWS08_120",2019-01-18 22:59:30,167,108.00,"",120,60962.0,0,"",7,"",0.4910,""
"GSWS08_120",2019-01-19 04:40:15,168,108.00,"",120,60962.0,0,"",8,"",0.6460,""
"GSWS08_120",2019-01-19 09:06:15,169,108.00,"",120,60962.0,0,"",9,"",0.6720,""
"GSWS08_120",2019-01-19 15:44:15,170,108.00,"",120,60962.0,0,"",10,"",0.6270,""
"GSWS08_120",2019-01-19 22:22:15,171,108.00,"",120,60962.0,0,"",11,"",0.5840,""
"GSWS08_120",2019-01-20 05:00:15,172,108.00,"",120,60962.0,0,"",12,"",0.5670,""
"GSWS08_120",2019-01-20 11:38:15,173,108.00,"",120,60962.0,0,"",13,"",0.5640,""
"GSWS08_120",2019-01-20 18:16:15,174,108.00,"",120,60962.0,0,"",14,"",0.5300,""
"GSWS08_120",2019-01-21 00:54:15,175,108.00,"",120,60962.0,0,"",15,"",0.4950,""
"GSWS08_120",2019-01-21 14:12:15,176,108.00,"",120,60962.0,0,"",16,"",0.4490,""
"GSWS08_120",2019-01-22 03:30:15,177,108.00,"",120,60962.0,0,"",17,"",0.4130,""
"GSWS08_120",2019-01-22 16:48:15,178,108.00,"",120,60962.0,0,"",18,"",0.3890,""
"GSWS08_120",2019-01-23 06:06:15,179,108.00,"",120,60962.0,0,"",19,"",0.4440,""
"GSWS08_120",2019-01-23 19:24:15,180,108.00,"",120,60962.0,0,"",20,"",0.4370,""
"GSWS08_120",2019-01-24 08:42:15,181,108.00,"",120,60962.0,0,"",21,"",0.4160,""
"GSWS08_120",2019-01-24 22:00:15,182,108.00,"",120,60962.0,0,"",22,"",0.3940,""
"GSWS08_120",2019-01-25 11:18:15,183,108.00,"",120,60962.0,0,"",23,"",0.3750,""
"GSWS08_120",2019-01-26 00:36:15,184,108.00,"",120,60962.0,0,"",24,"",0.3460,""
"GSWS08_120",2019-01-26 13:54:15,185,108.00,"",120,60962.0,0,"",25,"",0.3250,""
"GSWS08_120",2019-01-27 03:12:15,186,108.00,"",120,60962.0,0,"",26,"",0.3050,""
"GSWS08_120",2019-01-27 16:30:15,187,108.00,"",120,60962.0,0,"",27,"",0.2880,""
"GSWS08_120",2019-01-28 05:48:15,188,108.00,"",120,60962.0,0,"",28,"",0.2720,""
"GSWS08_120",2019-01-28 19:06:15,189,108.00,"",120,60962.0,0,"",29,"",0.2570,""
"GSWS08_120",2019-01-29 08:24:15,190,108.00,"",120,60962.0,0,"",30,"",0.2440,""
"GSWS08_120",2019-01-29 21:42:15,191,108.00,"",120,60962.0,0,"",31,"",0.2330,""
"GSWS08_120",2019-01-30 11:00:15,192,108.00,"",120,60962.0,0,"",32,"",0.2220,""
"GSWS08_120",2019-01-31 00:18:15,193,108.00,"",120,60962.0,0,"",33,"",0.2130,""
"GSWS08_120",2019-01-31 13:36:15,194,108.00,"",120,60962.0,0,"",34,"",0.2040,""
"GSWS08_120",2019-02-01 02:54:15,195,108.00,"",120,60962.0,0,"",35,"",0.1950,""
"GSWS08_120",2019-02-01 16:12:15,196,108.00,"",120,60962.0,0,"",36,"",0.1900,""
"GSWS08_120",2019-02-02 05:30:15,197,108.00,"",120,60962.0,0,"",37,"",0.1840,""
"GSWS08_120",2019-02-02 18:48:15,198,108.00,"",120,60962.0,0,"",38,"",0.1800,""
"GSWS08_120",2019-02-03 08:06:15,199,108.00,"",120,60962.0,0,"",39,"",0.2220,""
"GSWS08_120",2019-02-03 21:24:15,200,108.00,"",120,60962.0,0,"",40,"",0.1970,""
"GSWS08_120",2019-02-04 10:42:15,201,108.00,"",120,60962.0,0,"",41,"",0.1860,""
"GSWS08_120",2019-02-05 00:00:15,202,108.00,"",120,60962.0,0,"",42,"",0.1800,""
"GSWS08_120",2019-02-05 13:18:15,203,108.00,"",120,60962.0,0,"",43,"",0.1730,""
"GSWS08_120",2019-02-06 02:36:15,204,108.00,"",120,60962.0,0,"",44,"",0.1670,""
"GSWS08_120",2019-02-06 15:54:15,205,108.00,"",120,60962.0,0,"",1,"",0.1620,""
"GSWS08_120",2019-02-07 05:12:15,206,108.00,"",120,60962.0,0,"",2,"",0.1590,""
"GSWS08_120",2019-02-07 18:30:15,207,108.00,"",120,60962.0,0,"",3,"",0.1570,""
"GSWS08_120",2019-02-08 07:48:15,208,108.00,"",120,60962.0,0,"",4,"",0.1550,""
"GSWS08_120",2019-02-08 21:06:15,209,108.00,"",120,60962.0,0,"",5,"",0.1540,""
"GSWS08_120",2019-02-09 10:24:15,210,108.00,"",120,60962.0,0,"",6,"",0.1540,""
"GSWS08_120",2019-02-09 23:42:15,211,108.00,"",120,60962.0,0,"",7,"",0.1510,""
"GSWS08_120",2019-02-10 13:00:15,212,108.00,"",120,60962.0,0,"",8,"",0.1480,""
"GSWS08_120",2019-02-11 02:18:15,213,108.00,"",120,60962.0,0,"",9,"",0.1500,""
"GSWS08_120",2019-02-11 15:36:15,214,108.00,"",120,60962.0,0,"",10,"",0.1450,""
"GSWS08_120",2019-02-12 04:54:15,215,108.00,"",120,60962.0,0,"",11,"",0.1410,""
"GSWS08_120",2019-02-12 18:12:15,216,108.00,"",120,60962.0,0,"",12,"",0.1410,""
"GSWS08_120",2019-02-13 07:30:15,217,108.00,"",120,60962.0,0,"",13,"",0.1400,""
"GSWS08_120",2019-02-13 20:48:15,218,108.00,"",120,60962.0,0,"",14,"",0.1530,""
"GSWS08_120",2019-02-14 10:06:15,219,108.00,"",120,60962.0,0,"",15,"",0.2050,""
"GSWS08_120",2019-02-14 23:24:15,220,108.00,"",120,60962.0,0,"",16,"",0.2330,""
"GSWS08_120",2019-02-15 12:42:15,221,108.00,"",120,60962.0,0,"",17,"",0.2170,""
"GSWS08_120",2019-02-16 02:00:15,222,108.00,"",120,60962.0,0,"",18,"",0.2060,""
"GSWS08_120",2019-02-16 15:18:15,223,108.00,"",120,60962.0,0,"",19,"",0.1970,""
"GSWS08_120",2019-02-17 04:36:15,224,108.00,"",120,60962.0,0,"",20,"",0.1890,""
"GSWS08_120",2019-02-17 17:54:15,225,108.00,"",120,60962.0,0,"",21,"",0.1820,""
"GSWS08_120",2019-02-18 07:12:15,226,108.00,"",120,60962.0,0,"",22,"",0.1770,""
"GSWS08_120",2019-02-18 20:30:15,227,108.00,"",120,60962.0,0,"",23,"",0.1730,""
"GSWS08_120",2019-02-19 09:48:15,228,108.00,"",120,60962.0,0,"",24,"",0.1700,""
"GSWS08_120",2019-02-19 23:06:15,229,108.00,"",120,60962.0,0,"",25,"",0.1690,""
"GSWS08_120",2019-02-20 12:24:15,230,108.00,"",120,60962.0,0,"",26,"",0.1650,""
"GSWS08_120",2019-02-21 01:42:15,231,108.00,"",120,60962.0,0,"",27,"",0.1630,""
"GSWS08_120",2019-02-21 15:00:15,232,108.00,"",120,60962.0,0,"",28,"",0.1590,""
"GSWS08_120",2019-02-22 04:18:15,233,108.00,"",120,60962.0,0,"",29,"",0.1560,""
"GSWS08_120",2019-02-22 17:36:15,234,108.00,"",120,60962.0,0,"",30,"",0.1530,""
"GSWS08_120",2019-02-23 06:54:15,235,108.00,"",120,60962.0,0,"",31,"",0.1520,""
"GSWS08_120",2019-02-23 20:12:15,236,108.00,"",120,60962.0,0,"",32,"",0.1520,""
"GSWS08_120",2019-02-24 09:30:15,237,108.00,"",120,60962.0,0,"",33,"",0.1560,""
"GSWS08_120",2019-02-24 22:48:15,238,108.00,"",120,60962.0,0,"",34,"",0.1510,""
"GSWS08_120",2019-02-25 12:06:15,239,108.00,"",120,60962.0,0,"",35,"",0.1500,""
"GSWS08_120",2019-02-26 01:24:15,240,108.00,"",120,60962.0,0,"",36,"",0.1460,""
"GSWS08_120",2019-02-26 14:42:15,241,108.00,"",120,60962.0,0,"",37,"",0.1450,""
"GSWS08_120",2019-02-27 04:00:15,242,108.00,"",120,60962.0,0,"",38,"",0.1430,""
"GSWS08_120",2019-02-27 17:18:15,243,108.00,"",120,60962.0,0,"",39,"",0.1410,""
"GSWS08_120",2019-02-28 06:36:15,244,108.00,"",120,60962.0,0,"",40,"",0.1390,""
"GSWS08_120",2019-02-28 19:54:15,245,108.00,"",120,60962.0,0,"",41,"",0.1390,""